CW4223 Weather Reports


time (UTC)temp
C
wind
direction
speed
KPH
gust
KPH
rain 1hr
cm
rain 24hr
cm
rain mn
cm
humidity
%
barometer
mb
20260509090505 20 149 9.7 16.1 0.00 0.00 0.00 90 1006.8
20260509085959 20 117 6.4 16.1 0.00 0.00 0.00 90 1006.9
20260509085500 20 144 6.4 14.5 0.00 0.00 0.00 90 1007.1
20260509085306 20 149 8.0 14.5 0.00 0.00 0.00 90 1006.3
20260509084501 20 129 8.0 17.7 0.00 0.00 0.00 90 1007.4
20260509084303 20 142 11.3 16.1 0.00 0.00 0.00 90 1006.7
20260509084000 20 145 8.0 17.7 0.00 0.00 0.00 90 1007.4
20260509083504 20 186 8.0 19.3 0.00 0.00 0.00 90 1007.6
20260509083304 20 157 11.3 19.3 0.00 0.00 0.00 90 1007.0
20260509082803 20 156 11.3 24.1 0.00 0.00 0.00 90 1007.1
20260509082459 20 150 6.4 11.3 0.00 0.00 0.00 90 1008.0
20260509082306 20 166 11.3 16.1 0.00 0.00 0.00 90 1007.5
20260509081804 20 180 8.0 12.9 0.00 0.00 0.00 90 1007.7
20260509081501 20 150 6.4 11.3 0.00 0.00 0.00 90 1008.4
20260509081304 20 143 9.7 14.5 0.00 0.00 0.00 90 1008.0
20260509081000 20 157 4.8 11.3 0.00 0.00 0.00 90 1008.9
20260509080501 20 130 4.8 11.3 0.00 0.00 0.00 90 1009.0
20260509080004 20 126 4.8 9.7 0.00 0.00 0.00 90 1009.3
20260509075458 20 158 3.2 8.0 0.00 0.00 0.00 90 1009.4
20260509075001 20 126 3.2 4.8 0.00 0.00 0.00 90 1009.4
20260509074803 20 117 4.8 8.0 0.00 0.00 0.00 90 1008.8
20260509074501 20 115 3.2 4.8 0.00 0.00 0.00 90 1009.6
20260509074303 20 112 3.2 8.0 0.00 0.00 0.00 89 1009.2
20260509074000 20 115 1.6 4.8 0.00 0.00 0.00 89 1009.8
20260509073501 20 140 1.6 3.2 0.00 0.00 0.00 89 1010.0
20260509072505 20 241 1.6 3.2 0.00 0.00 0.00 88 1010.1
20260509072002 20 241 0.0 0.0 0.00 0.00 0.00 88 1010.1
20260509071501 20 241 0.0 0.0 0.00 0.00 0.00 88 1010.2
20260509071000 20 241 0.0 0.0 0.00 0.00 0.00 88 1010.3
20260509070500 20 241 0.0 4.8 0.00 0.00 0.00 88 1010.1
20260509070304 20 241 0.0 1.6 0.00 0.00 0.00 87 1009.3
20260509070006 20 241 0.0 4.8 0.00 0.00 0.00 87 1010.0
20260509065459 20 213 1.6 6.4 0.00 0.00 0.00 87 1009.8
20260509065306 21 213 1.6 4.8 0.00 0.00 0.00 87 1008.8
20260509064958 20 213 3.2 8.0 0.00 0.00 0.00 87 1009.6
20260509064502 20 194 4.8 8.0 0.00 0.00 0.00 87 1009.4
20260509064002 20 227 3.2 9.7 0.00 0.00 0.00 87 1009.4
20260509063804 20 201 4.8 8.0 0.00 0.00 0.00 88 1008.9
20260509063503 20 202 3.2 6.4 0.00 0.00 0.00 88 1009.5
20260509063000 20 215 3.2 4.8 0.00 0.00 0.00 88 1009.7
20260509062804 20 197 3.2 4.8 0.00 0.00 0.00 88 1008.8
20260509062500 20 199 3.2 8.0 0.00 0.00 0.00 88 1009.7
20260509062003 20 207 4.8 8.0 0.00 0.00 0.00 87 1009.6
20260509061804 20 184 6.4 9.7 0.00 0.00 0.00 87 1008.6
20260509061457 20 192 3.2 8.0 0.00 0.00 0.00 87 1009.5
20260509061003 20 179 1.6 3.2 0.00 0.00 0.00 87 1009.8
20260509060502 20 182 0.0 3.2 0.00 0.00 0.00 86 1010.1
20260509060002 20 182 1.6 4.8 0.00 0.00 0.00 86 1010.0
20260509055803 21 182 1.6 3.2 0.00 0.00 0.00 86 1009.4
20260509054804 21 182 1.6 3.2 0.00 0.00 0.00 86 1009.9
20260509054502 20 182 1.6 9.7 0.00 0.00 0.00 85 1010.5
20260509054000 21 182 3.2 9.7 0.00 0.00 0.00 85 1010.1
20260509053804 21 177 8.0 9.7 0.00 0.00 0.00 85 1009.2
20260509053505 21 178 1.6 6.4 0.00 0.00 0.00 85 1010.1
20260509053304 21 199 3.2 4.8 0.00 0.00 0.00 85 1009.7
20260509053002 21 241 1.6 3.2 0.00 0.00 0.00 85 1010.5
20260509052459 21 10 3.2 9.7 0.00 0.00 0.00 85 1010.9
20260509052001 21 340 4.8 9.7 0.00 0.00 0.00 85 1010.9
20260509051502 21 360 3.2 9.7 0.00 0.00 0.00 84 1010.8
20260509051005 21 360 1.6 6.4 0.00 0.00 0.00 84 1010.4
20260509050501 21 202 3.2 9.7 0.00 0.00 0.00 84 1009.9
20260509050304 21 210 4.8 8.0 0.00 0.00 0.00 84 1008.6
20260509050009 21 201 3.2 9.7 0.00 0.00 0.00 84 1009.5
20260509045504 21 203 1.6 4.8 0.00 0.00 0.00 84 1009.6
20260509045306 21 202 1.6 4.8 0.00 0.00 0.00 83 1009.0
20260509044804 21 200 1.6 8.0 0.00 0.00 0.00 83 1008.5
20260509044501 21 200 4.8 11.3 0.00 0.00 0.00 83 1009.4
20260509044006 21 204 6.4 11.3 0.00 0.00 0.00 83 1009.2
20260509043804 21 220 9.7 14.5 0.00 0.00 0.00 83 1008.4
20260509043501 21 206 6.4 11.3 0.00 0.00 0.00 83 1009.1
20260509043304 21 204 8.0 12.9 0.00 0.00 0.00 83 1008.4
20260509043001 21 188 8.0 12.9 0.00 0.00 0.00 83 1009.3
20260509042505 21 209 8.0 12.9 0.00 0.00 0.00 83 1009.2
20260509042306 21 190 9.7 16.1 0.00 0.00 0.00 83 1008.2
20260509042001 21 169 6.4 12.9 0.00 0.00 0.00 83 1009.0
20260509041804 21 177 9.7 16.1 0.00 0.00 0.00 83 1009.2
20260509041501 21 186 3.2 9.7 0.00 0.00 0.00 83 1009.7
20260509041304 21 161 3.2 9.7 0.00 0.00 0.00 82 1009.2
20260509041004 21 150 1.6 6.4 0.00 0.00 0.00 82 1010.0
20260509040804 21 140 3.2 8.0 0.00 0.00 0.00 82 1009.3
20260509040501 21 91 0.0 3.2 0.00 0.00 0.00 82 1010.3
20260509040008 21 22 0.0 0.0 0.00 0.00 0.00 82 1010.5
20260509035804 21 22 0.0 0.0 0.00 0.00 0.00 82 1009.6
20260509035501 21 22 0.0 4.8 0.00 0.00 0.00 82 1010.5
20260509035306 21 22 0.0 1.6 0.00 0.00 0.00 82 1009.3
20260509035001 21 22 3.2 8.0 0.00 0.00 0.00 82 1010.4
20260509034803 21 22 3.2 9.7 0.00 0.00 0.00 82 1009.3
20260509034505 21 344 4.8 8.0 0.00 0.00 0.00 82 1010.4
20260509034304 21 15 6.4 12.9 0.00 0.00 0.00 83 1009.3
20260509034006 21 5 3.2 6.4 0.00 0.00 0.00 83 1010.5
20260509033504 21 18 0.0 4.8 0.00 0.00 0.00 82 1010.2
20260509033304 21 197 0.0 0.0 0.00 0.00 0.00 82 1009.0
20260509033007 21 197 0.0 0.0 0.00 0.00 0.00 82 1009.9
20260509032803 21 197 0.0 0.0 0.00 0.00 0.00 82 1008.9
20260509032505 21 197 1.6 4.8 0.00 0.00 0.00 81 1009.7
20260509032004 21 197 3.2 4.8 0.00 0.00 0.00 81 1009.6
20260509031804 21 198 3.2 4.8 0.00 0.00 0.00 81 1008.7
20260509031511 21 180 1.6 4.8 0.00 0.00 0.00 81 1009.5
20260509031006 21 180 0.0 3.2 0.00 0.00 0.00 81 1009.5
20260509030501 21 180 0.0 0.0 0.00 0.00 0.00 81 1009.6
20260509030005 21 180 0.0 0.0 0.00 0.00 0.00 82 1009.6
20260509025501 21 180 0.0 0.0 0.00 0.00 0.00 81 1009.4
20260509025306 21 180 0.0 0.0 0.00 0.00 0.00 81 1008.0
20260509025005 21 180 0.0 4.8 0.00 0.00 0.00 81 1009.4
20260509024505 21 180 3.2 6.4 0.00 0.00 0.00 81 1009.3
20260509024304 21 169 3.2 8.0 0.00 0.00 0.00 81 1008.0
20260509024004 21 173 3.2 9.7 0.00 0.00 0.00 81 1009.0
20260509023503 21 175 3.2 9.7 0.00 0.00 0.00 81 1008.8
20260509023005 21 175 1.6 4.8 0.00 0.00 0.00 80 1008.8
20260509022501 21 138 1.6 3.2 0.00 0.00 0.00 80 1008.8
20260509022306 21 138 1.6 3.2 0.00 0.00 0.00 80 1007.9
20260509022003 21 138 1.6 4.8 0.00 0.00 0.00 80 1008.6
20260509021505 21 138 3.2 6.4 0.00 0.00 0.00 80 1008.7
20260509021303 22 153 3.2 8.0 0.00 0.00 0.00 80 1007.9
20260509021001 21 157 3.2 6.4 0.00 0.00 0.00 79 1008.6
20260509020504 21 178 3.2 8.0 0.00 0.00 0.00 79 1008.6
20260509020006 21 162 3.2 6.4 0.00 0.00 0.00 79 1008.7
20260509015459 21 182 3.2 6.4 0.00 0.00 0.00 79 1008.8
20260509015001 21 197 3.2 6.4 0.00 0.00 0.00 79 1008.5
20260509014803 22 186 3.2 8.0 0.00 0.00 0.00 79 1007.5
20260509014505 21 169 3.2 4.8 0.00 0.00 0.00 79 1008.6
20260509014003 21 194 3.2 4.8 0.00 0.00 0.00 79 1008.5
20260509013501 21 198 3.2 4.8 0.00 0.00 0.00 78 1008.4
20260509013001 21 195 1.6 4.8 0.00 0.00 0.00 78 1008.3
20260509012306 22 191 1.6 3.2 0.00 0.00 0.00 78 1007.5
20260509012006 21 191 1.6 4.8 0.00 0.00 0.00 78 1008.2
20260509011804 22 191 0.0 3.2 0.00 0.00 0.00 78 1007.4
20260509011501 21 191 1.6 4.8 0.00 0.00 0.00 78 1008.2
20260509011000 21 191 0.0 3.2 0.00 0.00 0.00 78 1008.1
20260509010501 21 191 1.6 4.8 0.00 0.00 0.00 78 1008.0
20260509010304 22 191 0.0 3.2 0.00 0.00 0.00 78 1007.2
20260509005804 22 185 1.6 8.0 0.00 0.00 0.00 77 1007.2
20260509005500 21 194 3.2 8.0 0.00 0.00 0.00 77 1007.9
20260509005306 22 191 4.8 9.7 0.00 0.00 0.00 77 1007.1
20260509004503 21 184 1.6 6.4 0.00 0.00 0.00 77 1007.9
20260509004303 22 192 1.6 8.0 0.00 0.00 0.00 77 1007.0
20260509004000 21 192 4.8 12.9 0.00 0.00 0.00 76 1007.8
20260509003804 22 153 3.2 8.0 0.00 0.00 0.00 76 1007.0
20260509003503 22 158 4.8 12.9 0.00 0.00 0.00 76 1007.7
20260509003304 22 174 8.0 16.1 0.00 0.00 0.00 76 1007.1
20260509003001 22 187 6.4 11.3 0.00 0.00 0.00 75 1007.6
20260509002503 22 167 6.4 11.3 0.00 0.00 0.00 75 1007.6
20260509001804 22 167 9.7 16.1 0.00 0.00 0.00 75 1007.2
20260509001504 22 182 6.4 12.9 0.00 0.00 0.00 75 1007.7
20260509001304 22 177 9.7 14.5 0.00 0.00 0.00 75 1007.2
20260509001004 22 196 6.4 9.7 0.00 0.00 0.00 74 1007.8
20260509000505 22 188 6.4 9.7 0.00 0.00 0.00 74 1007.8
20260509000001 22 180 4.8 11.3 0.00 0.00 0.00 74 1008.0
20260508235500 22 189 6.4 9.7 0.00 0.00 0.00 74 1008.1
20260508235306 22 188 8.0 14.5 0.00 0.00 0.00 74 1007.3
20260508235007 22 163 6.4 11.3 0.00 0.00 0.00 74 1008.0
20260508234804 22 187 8.0 14.5 0.00 0.00 0.00 73 1007.3
20260508234501 22 132 6.4 9.7 0.00 0.00 0.00 73 1008.0
20260508233503 22 185 6.4 11.3 0.00 0.00 0.00 73 1008.2
20260508233003 22 173 4.8 12.9 0.00 0.00 0.00 72 1008.2
20260508232803 22 159 8.0 14.5 0.00 0.00 0.00 73 1007.4
20260508232500 22 186 4.8 11.3 0.00 0.00 0.00 74 1008.2
20260508232006 22 151 4.8 11.3 0.00 0.00 0.00 73 1008.3
20260508231803 23 173 8.0 12.9 0.00 0.00 0.00 73 1007.6
20260508231504 22 186 6.4 11.3 0.00 0.00 0.00 72 1008.3
20260508231304 23 173 6.4 16.1 0.00 0.00 0.00 72 1007.5
20260508231006 22 175 8.0 14.5 0.00 0.00 0.00 71 1008.2
20260508230804 23 192 11.3 14.5 0.00 0.00 0.00 72 1007.6
20260508230506 22 180 9.7 16.1 0.00 0.00 0.00 72 1008.3
20260508230003 22 202 9.7 16.1 0.00 0.00 0.00 71 1008.4
20260508225804 23 203 14.5 22.5 0.00 0.00 0.00 71 1007.6
20260508225502 23 217 9.7 17.7 0.00 0.00 0.00 71 1008.3
20260508225306 23 197 11.3 19.3 0.00 0.00 0.00 70 1007.6
20260508225000 23 198 9.7 16.1 0.00 0.00 0.00 70 1008.3
20260508224804 23 212 9.7 16.1 0.00 0.00 0.00 70 1007.6
20260508224500 23 202 9.7 16.1 0.00 0.00 0.00 70 1008.3
20260508224304 23 210 11.3 19.3 0.00 0.00 0.00 70 1007.5
20260508224003 23 219 9.7 16.1 0.00 0.00 0.00 70 1008.2
20260508223502 23 156 9.7 19.3 0.00 0.00 0.00 70 1008.1
20260508223303 23 188 11.3 20.9 0.00 0.00 0.00 70 1007.4
20260508223004 23 185 9.7 16.1 0.00 0.00 0.00 71 1008.2
20260508222503 23 228 11.3 17.7 0.00 0.00 0.00 70 1008.1
20260508222306 23 180 11.3 22.5 0.00 0.00 0.00 71 1007.4
20260508222004 23 157 11.3 17.7 0.00 0.00 0.00 70 1008.1
20260508221804 23 201 14.5 22.5 0.00 0.00 0.00 70 1007.5
20260508221506 23 185 11.3 17.7 0.00 0.00 0.00 70 1008.1
20260508221304 23 181 14.5 20.9 0.00 0.00 0.00 70 1007.4
20260508221002 23 171 11.3 17.7 0.00 0.00 0.00 70 1008.0
20260508220503 23 211 11.3 16.1 0.00 0.00 0.00 70 1008.0
20260508215500 23 173 9.7 17.7 0.00 0.00 0.00 70 1007.9
20260508215005 23 197 9.7 17.7 0.00 0.00 0.00 70 1008.0
20260508214004 24 221 8.0 19.3 0.00 0.00 0.00 70 1007.9
20260508213803 24 183 11.3 24.1 0.00 0.00 0.00 69 1007.1
20260508213500 23 186 8.0 14.5 0.00 0.00 0.00 70 1007.8
20260508212501 23 133 6.4 14.5 0.00 0.00 0.00 71 1008.0
20260508212003 23 117 6.4 14.5 0.00 0.00 0.00 75 1008.5
20260508211804 22 147 9.7 16.1 0.00 0.00 0.00 75 1008.1
20260508211500 22 152 4.8 9.7 0.00 0.00 0.00 76 1008.9
20260508211004 22 181 3.2 9.7 0.00 0.00 0.00 76 1008.9
20260508210804 22 157 4.8 9.7 0.00 0.00 0.00 74 1008.3
20260508210304 22 158 4.8 12.9 0.00 0.00 0.00 73 1008.8
20260508210001 22 196 8.0 16.1 0.00 0.00 0.00 72 1009.5
20260508205459 22 198 6.4 14.5 0.00 0.00 0.00 70 1009.7
20260508205306 22 198 9.7 20.9 0.00 0.00 0.00 70 1009.1
20260508204501 22 211 6.4 12.9 0.00 0.00 0.00 70 1009.9
20260508204304 23 200 8.0 16.1 0.00 0.00 0.00 69 1009.2
20260508204007 22 207 6.4 12.9 0.00 0.00 0.00 69 1010.1
20260508203804 23 214 8.0 16.1 0.00 0.00 0.00 69 1009.3
20260508203503 22 189 6.4 12.9 0.00 0.00 0.00 69 1010.3
20260508203304 23 205 6.4 12.9 0.00 0.00 0.00 69 1009.3
20260508203005 22 207 6.4 12.9 0.00 0.00 0.00 69 1010.2
20260508202804 23 218 8.0 16.1 0.00 0.00 0.00 68 1009.3
20260508202501 23 231 6.4 11.3 0.00 0.00 0.00 68 1010.3
20260508202004 23 192 8.0 12.9 0.00 0.00 0.00 68 1010.3
20260508201804 23 183 9.7 16.1 0.00 0.00 0.00 67 1009.3
20260508201501 23 217 8.0 12.9 0.00 0.00 0.00 67 1010.2
20260508201001 23 203 6.4 14.5 0.00 0.00 0.00 66 1010.3
20260508200502 23 188 6.4 14.5 0.00 0.00 0.00 67 1010.3
20260508200304 24 194 9.7 16.1 0.00 0.00 0.00 67 1009.3
20260508195959 24 153 8.0 16.1 0.00 0.00 0.00 67 1010.2
20260508195803 24 191 8.0 14.5 0.00 0.00 0.00 66 1009.3
20260508195501 24 223 8.0 16.1 0.00 0.00 0.00 65 1010.2
20260508194804 24 187 8.0 19.3 0.00 0.00 0.00 66 1009.4
20260508194500 24 197 9.7 14.5 0.00 0.00 0.00 66 1010.4
20260508194304 24 161 9.7 19.3 0.00 0.00 0.00 65 1009.4
20260508193503 24 138 9.7 19.3 0.00 0.00 0.00 64 1010.3
20260508193003 25 181 9.7 19.3 0.00 0.00 0.00 67 1010.4
20260508192502 24 172 9.7 17.7 0.00 0.00 0.00 68 1010.4
20260508191502 24 183 9.7 16.1 0.00 0.00 0.00 66 1010.5
20260508191304 24 175 14.5 22.5 0.00 0.00 0.00 67 1009.8
20260508191002 24 163 9.7 17.7 0.00 0.00 0.00 67 1010.5
20260508190804 24 166 11.3 20.9 0.00 0.00 0.00 66 1009.8
20260508190459 24 146 8.0 17.7 0.00 0.00 0.00 68 1010.5
20260508185306 24 177 9.7 19.3 0.00 0.00 0.00 67 1010.1
20260508185004 24 132 8.0 17.7 0.00 0.00 0.00 69 1010.7
20260508184303 24 150 11.3 16.1 0.00 0.00 0.00 69 1010.0
20260508183503 23 121 8.0 16.1 0.00 0.00 0.00 66 1010.8
20260508183303 24 159 11.3 16.1 0.00 0.00 0.00 67 1010.4
20260508183008 23 202 6.4 12.9 0.00 0.00 0.00 65 1011.0
20260508182803 23 159 8.0 16.1 0.00 0.00 0.00 67 1010.4
20260508182306 23 182 9.7 16.1 0.00 0.00 0.00 65 1010.4
20260508182000 23 154 6.4 14.5 0.00 0.00 0.00 66 1011.1
20260508181804 23 134 8.0 16.1 0.00 0.00 0.00 67 1010.4
20260508181003 23 144 8.0 16.1 0.00 0.00 0.00 64 1011.4
20260508180304 23 175 11.3 20.9 0.00 0.00 0.00 65 1010.8
20260508180003 23 147 9.7 14.5 0.00 0.00 0.00 64 1011.6
20260508175804 23 216 12.9 19.3 0.00 0.00 0.00 62 1010.8
20260508175500 23 191 9.7 16.1 0.00 0.00 0.00 64 1011.7
20260508175000 23 176 9.7 16.1 0.00 0.00 0.00 63 1011.9
20260508174803 23 190 12.9 20.9 0.00 0.00 0.00 64 1011.0
20260508174503 23 198 8.0 16.1 0.00 0.00 0.00 64 1011.9
20260508174303 23 131 11.3 19.3 0.00 0.00 0.00 66 1011.0
20260508174001 23 173 8.0 16.1 0.00 0.00 0.00 67 1011.8
20260508173501 22 166 8.0 16.1 0.00 0.00 0.00 67 1011.9
20260508173303 23 167 11.3 20.9 0.00 0.00 0.00 66 1011.2
20260508173000 22 146 8.0 14.5 0.00 0.00 0.00 67 1012.0
20260508172803 23 161 9.7 19.3 0.00 0.00 0.00 66 1011.2
20260508172502 22 156 6.4 12.9 0.00 0.00 0.00 67 1012.1
20260508172004 22 227 8.0 16.1 0.00 0.00 0.00 65 1012.2
20260508171001 22 167 9.7 17.7 0.00 0.00 0.00 66 1012.3
20260508170804 23 186 12.9 22.5 0.00 0.00 0.00 68 1011.8
20260508170500 22 152 8.0 16.1 0.00 0.00 0.00 68 1012.5
20260508170304 22 161 11.3 20.9 0.00 0.00 0.00 69 1011.8
20260508170005 22 146 8.0 16.1 0.00 0.00 0.00 69 1012.6
20260508165459 21 158 8.0 14.5 0.00 0.00 0.00 69 1012.9
20260508165306 21 176 11.3 19.3 0.00 0.00 0.00 69 1012.6
20260508165005 21 153 8.0 16.1 0.00 0.00 0.00 68 1013.0
20260508164804 21 155 11.3 20.9 0.00 0.00 0.00 68 1012.6
20260508164501 21 134 8.0 16.1 0.00 0.00 0.00 70 1013.1
20260508164304 21 156 11.3 20.9 0.00 0.00 0.00 70 1012.6
20260508164003 21 143 8.0 14.5 0.00 0.00 0.00 69 1013.3
20260508163502 21 170 6.4 12.9 0.00 0.00 0.00 70 1013.4
20260508163304 21 151 11.3 19.3 0.00 0.00 0.00 70 1012.7
20260508163004 21 153 6.4 14.5 0.00 0.00 0.00 70 1013.5
20260508162504 21 182 6.4 14.5 0.00 0.00 0.00 71 1013.6
20260508161803 21 172 9.7 20.9 0.00 0.00 0.00 70 1012.8
20260508161502 20 173 8.0 16.1 0.00 0.00 0.00 70 1013.5
20260508161304 20 144 11.3 16.1 0.00 0.00 0.00 72 1012.9
20260508160804 21 168 9.7 16.1 0.00 0.00 0.00 72 1012.9
20260508160501 20 154 8.0 12.9 0.00 0.00 0.00 72 1013.6
20260508160304 21 151 9.7 16.1 0.00 0.00 0.00 72 1013.0
20260508160002 20 142 8.0 12.9 0.00 0.00 0.00 71 1013.7
20260508155804 20 154 9.7 16.1 0.00 0.00 0.00 71 1013.0
20260508155502 20 184 8.0 11.3 0.00 0.00 0.00 70 1013.8
20260508155003 20 143 8.0 14.5 0.00 0.00 0.00 71 1013.8
20260508154805 20 154 11.3 16.1 0.00 0.00 0.00 71 1013.0
20260508154502 20 155 6.4 14.5 0.00 0.00 0.00 71 1013.8
20260508153804 20 166 6.4 12.9 0.00 0.00 0.00 73 1013.1
20260508153505 20 138 4.8 11.3 0.00 0.00 0.00 72 1013.9
20260508153000 19 131 6.4 12.9 0.00 0.00 0.00 72 1013.9
20260508152804 19 162 9.7 16.1 0.00 0.00 0.00 71 1013.3
20260508152500 19 137 8.0 14.5 0.00 0.00 0.00 71 1014.0
20260508152306 19 175 9.7 19.3 0.00 0.00 0.00 72 1013.4
20260508152004 19 221 6.4 14.5 0.00 0.00 0.00 71 1014.1
20260508151459 19 190 6.4 11.3 0.00 0.00 0.00 71 1014.2
20260508151002 19 209 8.0 16.1 0.00 0.00 0.00 70 1014.1
20260508145502 20 140 6.4 12.9 0.00 0.00 0.00 71 1013.8
20260508145306 20 167 9.7 16.1 0.00 0.00 0.00 73 1013.0
20260508145007 19 167 4.8 12.9 0.00 0.00 0.00 71 1013.8
20260508144804 20 166 8.0 14.5 0.00 0.00 0.00 72 1013.2
20260508144501 19 149 4.8 11.3 0.00 0.00 0.00 72 1013.9
20260508144304 19 153 4.8 9.7 0.00 0.00 0.00 73 1013.2
20260508144002 19 153 4.8 12.9 0.00 0.00 0.00 73 1013.9
20260508143502 18 130 6.4 12.9 0.00 0.00 0.00 73 1014.0
20260508142001 18 167 6.4 14.5 0.00 0.00 0.00 73 1014.1
20260508141803 19 193 11.3 19.3 0.00 0.00 0.00 73 1013.4
20260508141502 19 182 6.4 12.9 0.00 0.00 0.00 76 1014.2
20260508141304 19 138 11.3 16.1 0.00 0.00 0.00 75 1013.4
20260508141002 18 183 6.4 11.3 0.00 0.00 0.00 76 1014.2
20260508140503 18 153 6.4 11.3 0.00 0.00 0.00 77 1014.2
20260508140006 18 144 4.8 11.3 0.00 0.00 0.00 78 1014.2
20260508135804 18 142 8.0 12.9 0.00 0.00 0.00 80 1013.4
20260508135004 17 150 4.8 9.7 0.00 0.00 0.00 80 1014.1
20260508134508 17 115 3.2 4.8 0.00 0.00 0.00 81 1014.1
20260508134304 17 130 3.2 8.0 0.00 0.00 0.00 81 1013.3
20260508134001 17 134 3.2 6.4 0.00 0.00 0.00 83 1014.2
20260508133501 17 146 3.2 6.4 0.00 0.00 0.00 83 1014.0
20260508133004 17 135 4.8 11.3 0.00 0.00 0.00 84 1014.1
20260508132803 17 152 8.0 14.5 0.00 0.00 0.00 84 1013.3
20260508132306 17 133 8.0 12.9 0.00 0.00 0.00 85 1013.4
20260508132005 17 165 3.2 8.0 0.00 0.00 0.00 85 1014.2
20260508131804 17 152 3.2 8.0 0.00 0.00 0.00 85 1013.6
20260508131000 16 114 1.6 6.4 0.00 0.00 0.00 88 1014.2
20260508130804 17 119 3.2 8.0 0.00 0.00 0.00 88 1013.6
20260508130503 16 121 1.6 4.8 0.00 0.00 0.00 89 1014.2
20260508130304 16 142 1.6 3.2 0.00 0.00 0.00 89 1013.6
20260508125804 16 170 3.2 8.0 0.00 0.00 0.00 90 1013.5
20260508125500 16 170 0.0 3.2 0.00 0.00 0.00 90 1014.2
20260508125306 16 85 0.0 1.6 0.00 0.00 0.00 90 1013.6
20260508125000 16 250 0.0 0.0 0.00 0.00 0.00 91 1014.4
20260508124459 16 250 0.0 1.6 0.00 0.00 0.00 91 1014.4
20260508123803 16 250 0.0 1.6 0.00 0.00 0.00 91 1013.8
20260508123501 15 264 0.0 3.2 0.00 0.00 0.00 91 1014.5
20260508123304 16 355 0.0 1.6 0.00 0.00 0.00 91 1013.7
20260508123000 15 355 1.6 4.8 0.00 0.00 0.00 91 1014.3
20260508122804 16 355 3.2 8.0 0.00 0.00 0.00 91 1013.8
20260508122306 16 335 0.0 1.6 0.00 0.00 0.00 91 1013.8
20260508121502 15 335 0.0 0.0 0.00 0.00 0.00 91 1014.4
20260508121303 15 134 0.0 0.0 0.00 0.00 0.00 91 1013.8
20260508121010 15 134 1.6 3.2 0.00 0.00 0.00 91 1014.5
20260508120458 15 241 1.6 4.8 0.00 0.00 0.00 91 1014.4
20260508120001 15 195 1.6 4.8 0.00 0.00 0.00 91 1014.4
20260508115804 15 166 1.6 3.2 0.00 0.00 0.00 91 1013.6
20260508115501 15 166 1.6 8.0 0.00 0.00 0.00 91 1014.3
20260508115306 15 166 1.6 3.2 0.00 0.00 0.00 91 1013.6
20260508115004 15 166 3.2 8.0 0.00 0.00 0.00 91 1014.3
20260508114500 15 197 3.2 6.4 0.00 0.00 0.00 91 1014.4
20260508114000 15 176 1.6 4.8 0.00 0.00 0.00 91 1014.4
20260508113501 15 159 3.2 4.8 0.00 0.00 0.00 90 1014.3
20260508113002 15 117 1.6 4.8 0.00 0.00 0.00 90 1014.4
20260508112804 15 117 3.2 8.0 0.00 0.00 0.00 90 1013.7
20260508112500 15 124 1.6 4.8 0.00 0.00 0.00 90 1014.4
20260508112003 15 180 1.6 4.8 0.00 0.00 0.00 90 1014.6
20260508111501 15 151 1.6 4.8 0.00 0.00 0.00 90 1014.5
20260508111304 16 168 3.2 8.0 0.00 0.00 0.00 90 1013.9
20260508111002 15 182 1.6 3.2 0.00 0.00 0.00 90 1014.6
20260508110803 16 182 1.6 3.2 0.00 0.00 0.00 91 1014.2
20260508110504 15 227 0.0 3.2 0.00 0.00 0.00 91 1014.8
20260508110304 15 286 0.0 1.6 0.00 0.00 0.00 91 1014.3
20260508110004 15 308 1.6 4.8 0.00 0.00 0.00 91 1014.9
20260508105306 15 322 1.6 3.2 0.00 0.00 0.00 91 1013.2
20260508104304 15 198 0.0 0.0 0.00 0.00 0.00 91 1013.2
20260508104002 15 198 0.0 1.6 0.00 0.00 0.00 91 1014.0
20260508103501 15 198 0.0 1.6 0.00 0.00 0.00 91 1013.8
20260508103304 15 198 0.0 1.6 0.00 0.00 0.00 91 1012.8
20260508103002 15 198 0.0 1.6 0.00 0.00 0.00 91 1013.5
20260508102803 15 198 0.0 1.6 0.00 0.00 0.00 91 1012.8
20260508102500 15 198 0.0 1.6 0.00 0.00 0.00 91 1013.6
20260508102306 15 198 0.0 0.0 0.00 0.00 0.00 91 1012.7
20260508102002 15 198 1.6 4.8 0.00 0.00 0.00 90 1013.7
20260508101500 15 198 1.6 4.8 0.00 0.00 0.00 91 1013.5
20260508101303 15 194 3.2 8.0 0.00 0.00 0.00 91 1012.6
20260508101003 15 165 1.6 6.4 0.00 0.00 0.00 91 1013.4
20260508095959 15 147 1.6 3.2 0.00 0.00 0.00 90 1013.6
20260508095501 15 147 1.6 3.2 0.00 0.00 0.00 90 1013.4
20260508095002 15 211 0.0 0.0 0.00 0.00 0.00 90 1013.5
20260508094502 15 211 0.0 1.6 0.00 0.00 0.00 90 1013.7
20260508094304 15 211 0.0 1.6 0.00 0.00 0.00 90 1012.9
20260508094000 15 211 0.0 3.2 0.00 0.00 0.00 90 1013.9
20260508093803 15 211 0.0 1.6 0.00 0.00 0.00 90 1012.9
20260508093502 15 211 0.0 3.2 0.00 0.00 0.00 90 1013.7
20260508093304 15 211 0.0 3.2 0.00 0.00 0.00 90 1012.9
20260508093002 15 211 0.0 1.6 0.00 0.00 0.00 90 1013.8
20260508092804 15 211 0.0 0.0 0.00 0.00 0.00 90 1012.9
20260508092500 15 211 0.0 1.6 0.00 0.00 0.00 90 1013.8
20260508092000 15 211 0.0 0.0 0.00 0.00 0.00 90 1013.8
20260508091804 15 211 0.0 0.0 0.00 0.00 0.00 90 1013.0
20260508091502 15 211 0.0 1.6 0.00 0.00 0.00 90 1013.8